OpenBCM V1.08-5-g2f4a (Linux)

Packet Radio Mailbox

IZ3LSV

[San Dona' di P. JN]

 Login: GUEST





  
LU9DCE > KEPLER   16.05.16 13:34l 344 Lines 17903 Bytes #999 (0) @ WW
BID : 43562-CX2SA
Read: GUEST
Subj: AMSAT 5/16/2016
Path: IZ3LSV<IW0QNL<JH4XSY<JE7YGF<N9PMO<N6RME<CX2SA
Sent: 160516/1126Z @:CX2SA.SAL.URY.SOAM #:43562 [Salto] FBB7.00e $:43562-CX2SA
From: LU9DCE@CX2SA.SAL.URY.SOAM
To  : KEPLER@WW


MOON
1 00000U 00000    16097.43015885  .00000000  00000-0  10000-3 0 00004
2 00000 018.3896 002.4200 0587000 022.5983 340.1125 00.03660099000014
OSCAR 7 (AO-7)          
1 07530U 74089B   16136.89638630 -.00000029  00000-0  96064-4 0  9994
2 07530 101.5717 108.4425 0012227  15.8577  39.4381 12.53621276899076
PHASE 3B (AO-10)
1 14129U 83058B   16135.55649341  .00000094  00000-0  00000+0 0  9996
2 14129  26.6922  98.1893 6011231 198.6194 346.5058  2.05866562219605
UOSAT 2 (UO-11)         
1 14781U 84021B   16136.16932968  .00000291  00000-0  42372-4 0  9991
2 14781  97.7524 189.1778 0009916  67.5371 292.6892 14.82737040731366
LUSAT (LO-19)           
1 20442U 90005G   16136.80286046  .00000025  00000-0  25201-4 0  9998
2 20442  98.5421  72.1979 0010690 239.5477 120.4652 14.32814959374719
EYESAT-1 (AO-27)        
1 22825U 93061C   16135.91831064  .00000040  00000-0  33073-4 0  9990
2 22825  98.7564  91.9647 0009426  59.1020 301.1087 14.29954112180214
ITAMSAT (IO-26)         
1 22826U 93061D   16136.45997619  .00000054  00000-0  38054-4 0  9999
2 22826  98.7508  92.6374 0009852  49.4440 310.7598 14.30278617180729
RADIO ROSTO (RS-15)     
1 23439U 94085A   16135.95282334 -.00000033  00000-0  28060-3 0  9995
2 23439  64.8164 143.2840 0165087 313.5800  45.1519 11.27565562880675
JAS-2 (FO-29)           
1 24278U 96046B   16136.41216394 -.00000034  00000-0  53724-5 0  9999
2 24278  98.5850  65.9124 0349332 287.5583  68.7681 13.53067579975080
NOAA 15                 
1 25338U 98030A   16136.51918088  .00000097  00000-0  59831-4 0  9994
2 25338  98.7830 140.6033 0009440 282.3680  77.6443 14.25724614936332
TECHSAT 1B (GO-32)      
1 25397U 98043D   16135.82578749  .00000009  00000-0  22919-4 0  9992
2 25397  98.5646  81.6380 0002459  83.0967 277.0492 14.23593466927119
ISS (ZARYA)             
1 25544U 98067A   16136.69611507  .00005252  00000-0  85076-4 0  9996
2 25544  51.6433 220.1152 0002135 107.8767 350.8535 15.54602232999921
TERRA
1 25994U 99068A   16136.81471703 -.00000058  00000-0 -28910-5 0  9999
2 25994  98.2104 211.5657 0000904  76.5828 283.5461 14.57096358872803
PCSAT (NO-44)           
1 26931U 01043C   16136.19521738  .00000016  00000-0  38090-4 0  9993
2 26931  67.0528  38.0249 0007155 263.2701  96.7586 14.30406151763424
AQUA
1 27424U 02022A   16135.95363755  .00000245  00000-0  64371-4 0  9990
2 27424  98.1974  77.0155 0000664  70.5080 354.2831 14.57143035746231
SAUDISAT 1C (SO-50)     
1 27607U 02058C   16135.81103390  .00000274  00000-0  59711-4 0  9998
2 27607  64.5554 262.8167 0071393 224.0119 135.5286 14.75146548720348
CUTE-1 (CO-55)          
1 27844U 03031E   16135.95887226  .00000114  00000-0  71493-4 0  9999
2 27844  98.6929 144.7220 0010804  62.8381 297.3896 14.21945893667684
CUBESAT XI-IV (CO-57)   
1 27848U 03031J   16136.83783574  .00000109  00000-0  69639-4 0  9995
2 27848  98.7025 145.6646 0010780  67.9921 292.2400 14.21573078667741
MOZHAYETS 4 (RS-22)     
1 27939U 03042A   16136.71757591  .00000265  00000-0  56307-4 0  9996
2 27939  97.8847 289.6521 0014194  52.8129 307.4367 14.66394389675061
NOAA 18                 
1 28654U 05018A   16136.54422731  .00000032  00000-0  42846-4 0  9997
2 28654  99.1975 142.6267 0015391 105.6420 254.6450 14.12284173566121
CUBESAT XI-V (CO-58)    
1 28895U 05043F   16136.47628475  .00000378  00000-0  82077-4 0  9990
2 28895  97.8308 312.0624 0016052 326.5069  33.5118 14.63183907562323
METOP-A                 
1 29499U 06044A   16136.90422353  .00000033  00000-0  35254-4 0  9991
2 29499  98.6983 196.3443 0000840 167.0730  12.1492 14.21490129496690
PEHUENSAT 1 (PO-63)
1 29712U 07001D   16135.94570026  .00006659  00000-0  42092-3 0  9994
2 29712  97.5818 158.2970 0007493 187.9941 172.1169 15.09343066507090
CUTE-1.7+APD II (CO-65) 
1 32785U 08021C   16135.87237475  .00000638  00000-0  75895-4 0  9990
2 32785  97.6057 171.4695 0014441  51.9859 308.2659 14.87538156435671
AAUSAT-II
1 32788U 08021F   16136.80966000  .00001708  00000-0  16872-3 0  9998
2 32788  97.6064 180.7459 0012702  26.0026 334.1829 14.93155684436362
DELFI-C3 (DO-64)        
1 32789U 08021G   16136.17855558  .00003947  00000-0  29673-3 0  9994
2 32789  97.6089 195.9797 0013280  18.9925 341.1793 15.03071327437040
CANX-2
1 32790U 08021H   16136.38940445  .00000642  00000-0  76802-4 0  9995
2 32790  97.6016 170.6522 0015108  51.3040 308.9525 14.87305635435706
SEEDS II (CO-66)        
1 32791U 08021J   16135.87434249  .00000886  00000-0  97932-4 0  9996
2 32791  97.6064 174.5202 0014586  42.2820 317.9520 14.89724762435839
YUBILEINY (RS-30)       
1 32953U 08025A   16136.76782790  .00000010  00000-0 -13620-7 0  9991
2 32953  82.4999 126.8133 0020454  73.3631 286.9691 12.43069367362055
PRISM (HITOMI)          
1 33493U 09002B   16136.80824241  .00001159  00000-0  11205-3 0  9997
2 33493  98.2202 355.3722 0014997 317.7525  42.2540 14.94862625396398
STARS (KUKAI)
1 33498U 09002G   16136.49933711  .00000754  00000-0  11161-3 0  9991
2 33498  98.2841 292.0442 0011200 177.1084 223.8503 14.78211564393148
KKS-1 (KISEKI)          
1 33499U 09002H   16136.16789693  .00000393  00000-0  66452-4 0  9997
2 33499  98.2834 285.0836 0008892 194.1193 165.9767 14.74973607392688
NOAA 19                 
1 33591U 09005A   16136.49340523  .00000111  00000-0  85487-4 0  9991
2 33591  99.0372  93.0033 0013267 314.7366  45.2724 14.12072038374523
TATIANA 2
1 35868U 09049D   16136.71678082  .00000032  00000-0  33141-4 0  9999
2 35868  98.4545 170.6550 0003574 191.4224 168.6870 14.22725453345725
SWISSCUBE               
1 35932U 09051B   16136.83314191  .00000373  00000-0  95983-4 0  9995
2 35932  98.4434 263.5387 0008348  41.3496 318.8332 14.55804199352509
ITUPSAT 1               
1 35935U 09051E   16136.83202961  .00000312  00000-0  83170-4 0  9997
2 35935  98.4568 264.8641 0008948  45.2622 314.9302 14.55159464352442
XIWANG-1 (HOPE-1)       
1 36122U 09072B   16136.68008223 -.00000059  00000-0 -43517-4 0  9998
2 36122 100.1458 173.8498 0008179  72.6138 287.5868 13.16334015308335
TISAT 1                 
1 36799U 10035E   16136.81335747  .00001217  00000-0  13294-3 0  9991
2 36799  98.0271 246.5987 0012536 185.7025 174.4051 14.89762115316601
AO-71
1 37854U 11061E   16132.80034487  .00003080  00000-0  17797-3 0  9998
2 37854 101.7080 157.0379 0173989 181.0879 178.9977 15.01957850246639
M-CUBED & EXP-1 PRIME   
1 37855U 11061F   16135.92665046  .00002753  00000-0  15678-3 0  9998
2 37855 101.7218 159.8375 0187627 175.8372 184.4452 15.00891794246534
HORYU 2                 
1 38340U 12025D   16136.20353926  .00000697  00000-0  11159-3 0  9997
2 38340  98.3532 120.7032 0012977 114.4242 245.8321 14.75000833214619
RS-40
1 38735U 12041C   16133.71679634  .00000040  00000-0  21992-3 0  9991
2 38735  82.4792 213.8775 0017051 176.6802 183.4396 12.42572592171964
METOP-B                 
1 38771U 12049A   16136.49431898  .00000028  00000-0  32792-4 0  9992
2 38771  98.7324 196.0603 0000598  26.1714  29.8122 14.21483938189778
AIST-2                  
1 39133U 13015D   16136.77147921  .00000742  00000-0  66037-4 0  9993
2 39133  64.8739 101.0952 0003198 290.9035 139.0877 15.03862925168534
TURKSAT-3USAT
1 39152U 13018C   16136.76767103  .00000663  00000-0  94583-4 0  9995
2 39152  97.9672 221.5147 0015721 248.4876 111.4660 14.79947760164788
CUBEBUG-1 (CAPITAN BETO)
1 39153U 13018D   16136.76404493  .00000574  00000-0  83122-4 0  9994
2 39153  97.9977 224.9580 0015809 253.2568 106.6909 14.79858391164800
ESTCUBE 1               
1 39161U 13021C   16136.88928161  .00000496  00000-0  87646-4 0  9991
2 39161  98.0487 221.5878 0009196 341.0451  19.0398 14.71646893162316
PHONESAT 2.4
1 39381U 13064B   16134.69963116  .00035433  00000-0  38594-3 0  9994
2 39381  40.4936 242.4710 0003111  83.3505 276.7672 15.62637844139323
ZACUBE-1 (TSHEPISOSAT)
1 39417U 13066B   16136.15879717  .00000671  00000-0  91797-4 0  9993
2 39417  97.6827 190.4376 0061007 129.8830 230.7770 14.80365234133885
TRITON-1
1 39427U 13066M   16135.87617162  .00000441  00000-0  79113-4 0  9999
2 39427  97.6702 171.2997 0114842 183.1472 176.9025 14.67162791132639
GOMX 1
1 39430U 13066Q   16136.73787248  .00000427  00000-0  87431-4 0  9998
2 39430  97.6713 160.1487 0151259 217.6060 141.4475 14.58571456131991
EAGLE 2                 
1 39436U 13066W   16135.76557943  .00020098  00000-0  90403-3 0  9991
2 39436  97.7158 221.6781 0016485  48.3544 311.9099 15.21024996135799
CUBEBUG-2 (LO-74)       
1 39440U 13066AA  16136.65989984  .00000677  00000-0  10226-3 0  9995
2 39440  97.6766 183.4017 0082146 148.1476 212.4740 14.75129565133483
FUNCUBE-1 (AO-73)       
1 39444U 13066AE  16136.73180800  .00000932  00000-0  12314-3 0  9992
2 39444  97.6838 191.5573 0060311 126.2386 234.4422 14.81028553132775
UWE-3                   
1 39446U 13066AG  16136.09153401  .00000641  00000-0  92684-4 0  9996
2 39446  97.6789 186.4422 0071956 140.1197 220.5333 14.77651754132407
AIST 1
1 39492U 13078C   16136.83143129  .00000446  00000-0  46620-4 0  9990
2 39492  82.4211 202.0460 0018497 271.0328  88.8770 14.87384492129159
COSMOS 2491
1 39497U 13076E   16135.93739473  .00000024  00000-0  10000-3 0  9990
2 39497  82.4831 305.6937 0017159 212.8375 147.1639 12.42672200108099
COSMOS 2499
1 39765U 14028E   16135.74903895  .00000032  00000-0  78977-4 0  9993
2 39765  82.4779 221.3475 0228060  15.8109 344.9963 12.83522945 92623
SPROUT                  
1 39770U 14029E   16136.01927625  .00001105  00000-0  13484-3 0  9991
2 39770  97.8692 233.6275 0009558 181.9441 178.1743 14.85303890107013
